Regional Weather Roundup
Issued by NWS

Home | Current Version | Previous Version | Graphics & Text | Print | Product List | Glossary On
Versions: 1 2 3 4 5 6 7 8 9 10 11 12 13 14 15 16 17 18 19 20 21 22 23 24 25 26 27 28
000
ASUS45 KSLC 302210
RWRUT

UTAH REGIONAL WEATHER ROUNDUP
NATIONAL WEATHER SERVICE SALT LAKE CITY UT
400 PM MDT THU OCT 30 2014

UTZ001>011-023>025-302300-

NORTHERN UTAH

CITY           SKY/WX    TMP DP  RH WIND       PRES   REMARKS
BRIGHAM CITY   SUNNY     69  28  21 CALM      30.17F
HILL AFB       SUNNY     67  33  28 N6        30.18F
LOGAN          SUNNY     67  31  26 CALM      30.18F
OGDEN          SUNNY     67  31  26 VRB5      30.17F
PROVO AIRPORT  NOT AVBL
SALT LAKE CITY MOSUNNY   68  29  23 N6        30.15F
VERNAL         SUNNY     62  24  23 CALM      30.29F
WENDOVER       SUNNY     57  27  30 SE5       30.18F
HEBER CITY     SUNNY     70  25  18 CALM      30.19F
WEST JORDAN    SUNNY     66  41  39 NW5       30.18F

$$

UTZ012>022-026-027-302300-

SOUTHERN/CENTRAL UTAH

CITY           SKY/WX    TMP DP  RH WIND       PRES   REMARKS
BLANDING       SUNNY     67  18  15 S5        30.34F
BRYCE CANYON   SUNNY     61  17  18 SE14      30.34F
CEDAR CITY     SUNNY     73  19  13 SW13G21   30.16F
DELTA          SUNNY     68  20  16 CALM      30.17F
HANKSVILLE       N/A     70  19  14 CALM      30.24F
MILFORD        SUNNY     74  22  14 S9        30.14F
MOAB/CYNLANDS  SUNNY     68  20  16 NW5       30.22F
PRICE          SUNNY     65  16  15 VRB5      30.29F
ST GEORGE      CLEAR     75  27  16 SW3       30.06F
KANAB            N/A     73  19  13 NE15G21   30.20F

$$

REGIONAL REPORTS     COLORADO/ARIZONA

CITY           SKY/WX    TMP DP  RH WIND       PRES   REMARKS
CRAIG, CO      SUNNY     62  25  24 CALM      30.32F
GRAND JUNCTION SUNNY     67  18  15 CALM      30.23F
RIFLE          SUNNY     68  21  16 CALM      30.26F
MONTROSE       SUNNY     66  19  16 CALM      30.29F
CORTEZ         SUNNY     67  21  17 SW5       30.28F
PAGE, AZ       SUNNY     70  20  15 CALM      30.19F
GRAND CANYON   SUNNY     70  18  13 NE14      30.27S
KINGMAN        MOSUNNY   81  32  17 SW13      30.06F
FLAGSTAFF      SUNNY     67  22  18 E8        30.29F

$$

REGIONAL REPORTS    NEVADA/IDAHO/WYOMING

CITY           SKY/WX    TMP DP  RH WIND       PRES   REMARKS
LAS VEGAS, NV  MOSUNNY   81  21  11 SE5       29.96F
ELY            SUNNY     71  19  14 SE17      30.16F
ELKO           MOSUNNY   71  24  17 NE7       30.09F
POCATELLO, ID  SUNNY     70  33  25 NE7       30.16F
BURLEY         MOSUNNY   72  30  21 E5        30.09F
EVANSTON, WY   MOSUNNY   64  24  21 VRB7      30.29F
ROCK SPRINGS   SUNNY     60  24  25 NE5       30.32S
KEMMERER       SUNNY     59  28  31 SE3       30.33S

$$



USA.gov is the U.S. government's official web portal to all federal, state and local government web resources and services.